星链-3594 (STARLINK-3594 )

导读

STARLINK-3594是美国于2022年3月3日发射的星链卫星,隶属于SpaceX公司的星链项目,该项目旨在构建全球卫星互联网星座,为全球偏远地区、海洋上空等网络覆盖薄弱区域提供高速互联网服务。作为星链星座的组成部分,该卫星承担着增强星座网络覆盖、提升通信容量的作用,推动全球互联网络建设进程。

基本信息
目录编号:
51895
目录名称:
STARLINK-3594
国际标识:
2022-022AV
轨道中心:
EARTH
卫星名称:
星链-3594
卫星全名:
星链-3594 (STARLINK-3594 )
卫星状态:
在轨 (已飞行1567 天)
发射日期:
2022-03-03 UTC
国别 :
美国 (US)
星等 :
--
轨道信息
数据来源 国际轨道数据
星历时间: 2026-06-17T20:00:03+0800
5小时前
查看轨道信息
半长轴: 6902.373km
偏心率: 0.000221
轨道倾角: 53.159°
近地点辐角 100.435°
升交点赤经 270.847°
平近点角 5.495°
近地点: 522.71km
远地点: 525.762km
周期: 95.117分钟
每日圈数: 15.139279
详细信息
固有亮度:
5
最大亮度:
2.5
卫星平台:
Starlink v1.5
覆盖范围:
全球
运营商:
太空探索技术公司
运营商所在国:
美国
制造商(研发单位):
太空探索技术公司
制造商所在国:
美国
使用方式:
暂无
卫星简介
星链(Starlink)计划是由太空探索技术公司(SpaceX)提出的一个巨型低轨卫星互联网星座项目,计划在2019年至2024年间在太空搭建由约1.2万颗卫星组成的“星链”网络,其中1584颗将部署在地球上空550千米处的近地轨道,并从2020年开始工作。该卫星仍在工作。
2D轨道图
3D轨道图
轨道高度分析图
轨道倾角分析图
轨道综合分析图
查看轨道综合分析图